When you browse on this site, cookies collect data to enhance your experience and personalize the content and advertising you see.
Visit our Privacy Policy to learn more. By continuing to use the site, you agree to this use of cookies and data.
  • In Hungary
  • List of Countries
  • For 7 days
  • Water Temperature
  • Weather Map
  • News
  • Weather Widgets
  • user-avatar
    Login

    Hourly Weather Englewood

    Today, 21 November, Thursday

    Time Temperature Precipitation Wind Pressure Humidity
    00:00 +3°C° 0 mm 4 mps 759 mmHg 67%
    01:00 +1°C° 0 mm 4 mps 759 mmHg 67%
    02:00 +1°C° 0 mm 4 mps 760 mmHg 68%
    03:00 +2°C° 0 mm 3 mps 760 mmHg 69%
    04:00 +2°C° 0 mm 3 mps 760 mmHg 69%
    05:00 +2°C° 0 mm 3 mps 760 mmHg 70%
    06:00 +3°C° 0 mm 2 mps 761 mmHg 71%
    07:00 +3°C° 0 mm 2 mps 761 mmHg 72%
    08:00 +4°C° 0 mm 2 mps 761 mmHg 67%
    09:00 +6°C° 0 mm 1 mps 761 mmHg 62%
    10:00 +7°C° 0 mm 1 mps 761 mmHg 57%
    11:00 +8°C° 0 mm 1 mps 761 mmHg 53%
    12:00 +9°C° 0 mm 1 mps 760 mmHg 49%
    13:00 +10°C° 0 mm 1 mps 760 mmHg 46%
    14:00 +10°C° 0 mm 1 mps 759 mmHg 47%
    15:00 +10°C° 0 mm 1 mps 759 mmHg 49%
    16:00 +10°C° 0 mm 1 mps 758 mmHg 51%
    17:00 +9°C° 0 mm 2 mps 758 mmHg 55%
    18:00 +8°C° 0 mm 2 mps 758 mmHg 60%
    19:00 +8°C° 0 mm 2 mps 758 mmHg 64%
    20:00 +8°C° 0 mm 2 mps 758 mmHg 64%
    21:00 +8°C° 0 mm 2 mps 757 mmHg 63%
    22:00 +8°C° 0 mm 2 mps 757 mmHg 63%
    23:00 +8°C° 0 mm 3 mps 756 mmHg 63%

    Tomorrow, 22 November, Friday

    Time Temperature Precipitation Wind Pressure Humidity
    00:00 +8°C° 0 mm 3 mps 756 mmHg 62%
    01:00 +7°C° 0 mm 4 mps 755 mmHg 61%
    02:00 +7°C° 0 mm 4 mps 755 mmHg 63%
    03:00 +7°C° 0 mm 4 mps 754 mmHg 66%
    04:00 +7°C° 0 mm 4 mps 754 mmHg 68%
    05:00 +7°C° 0 mm 4 mps 753 mmHg 70%
    06:00 +7°C° 0 mm 4 mps 752 mmHg 72%
    07:00 +7°C° 0 mm 4 mps 752 mmHg 75%
    08:00 +8°C° 0 mm 4 mps 751 mmHg 72%
    09:00 +9°C° 0 mm 5 mps 751 mmHg 70%
    10:00 +10°C° 0 mm 5 mps 750 mmHg 68%
    11:00 +10°C° 0.1 mm 6 mps 750 mmHg 70%
    12:00 +11°C° 0.1 mm 6 mps 750 mmHg 71%
    13:00 +11°C° 0.1 mm 6 mps 750 mmHg 73%
    14:00 +10°C° 0.1 mm 6 mps 750 mmHg 65%
    15:00 +9°C° 0.1 mm 6 mps 751 mmHg 58%
    16:00 +8°C° 0.1 mm 6 mps 751 mmHg 50%
    17:00 +7°C° 0 mm 6 mps 752 mmHg 50%
    18:00 +4°C° 0 mm 6 mps 753 mmHg 49%
    19:00 +3°C° 0 mm 6 mps 753 mmHg 49%
    20:00 +3°C° 0 mm 6 mps 754 mmHg 49%
    21:00 +2°C° 0 mm 6 mps 754 mmHg 48%
    22:00 +1°C° 0 mm 5 mps 755 mmHg 48%
    23:00 +1°C° 0 mm 5 mps 755 mmHg 48%

    Day after tomorrow, 23 November, Saturday

    Time Temperature Precipitation Wind Pressure Humidity
    00:00 0°C° 0 mm 5 mps 755 mmHg 48%
    01:00 0°C° 0 mm 5 mps 756 mmHg 48%
    02:00 0°C° 0 mm 5 mps 756 mmHg 48%
    03:00 0°C° 0 mm 4 mps 756 mmHg 48%
    04:00 -1°C° 0 mm 4 mps 756 mmHg 48%
    05:00 -1°C° 0 mm 4 mps 756 mmHg 49%
    06:00 0°C° 0 mm 3 mps 756 mmHg 50%
    07:00 0°C° 0 mm 3 mps 756 mmHg 50%
    08:00 +1°C° 0 mm 3 mps 756 mmHg 48%
    09:00 +2°C° 0 mm 3 mps 757 mmHg 45%
    10:00 +3°C° 0 mm 3 mps 757 mmHg 43%
    11:00 +5°C° 0 mm 2 mps 756 mmHg 41%
    12:00 +6°C° 0 mm 2 mps 756 mmHg 39%
    13:00 +7°C° 0 mm 2 mps 755 mmHg 37%
    14:00 +8°C° 0 mm 1 mps 755 mmHg 37%
    15:00 +8°C° 0 mm 1 mps 754 mmHg 37%
    16:00 +8°C° 0 mm 1 mps 754 mmHg 38%
    17:00 +8°C° 0 mm 1 mps 754 mmHg 38%
    18:00 +7°C° 0 mm 2 mps 753 mmHg 39%
    19:00 +6°C° 0 mm 2 mps 753 mmHg 40%
    20:00 +6°C° 0.4 mm 2 mps 753 mmHg 49%
    21:00 +5°C° 0.4 mm 2 mps 752 mmHg 59%
    22:00 +5°C° 0.4 mm 2 mps 752 mmHg 68%
    23:00 +5°C° 1.6 mm 2 mps 751 mmHg 75%

    24 November, Sunday

    Time Temperature Precipitation Wind Pressure Humidity
    00:00 +5°C° 1.6 mm 2 mps 750 mmHg 82%
    01:00 +5°C° 1.6 mm 2 mps 749 mmHg 89%
    02:00 +4°C° 1.6 mm 3 mps 748 mmHg 91%
    03:00 +5°C° 1.6 mm 3 mps 747 mmHg 93%
    04:00 +5°C° 1.6 mm 3 mps 746 mmHg 95%
    05:00 +5°C° 0.6 mm 3 mps 745 mmHg 95%
    06:00 +7°C° 0.6 mm 3 mps 745 mmHg 95%
    07:00 +7°C° 0.6 mm 3 mps 744 mmHg 95%
    08:00 +7°C° 0.2 mm 2 mps 744 mmHg 93%
    09:00 +7°C° 0.2 mm 2 mps 744 mmHg 91%
    10:00 +7°C° 0.2 mm 2 mps 743 mmHg 90%
    11:00 +7°C° 0.2 mm 3 mps 743 mmHg 87%
    12:00 +8°C° 0.2 mm 3 mps 742 mmHg 85%
    13:00 +7°C° 0.2 mm 4 mps 742 mmHg 83%
    14:00 +7°C° 0.8 mm 4 mps 742 mmHg 78%
    15:00 +7°C° 0.8 mm 5 mps 742 mmHg 74%
    16:00 +7°C° 0.8 mm 5 mps 742 mmHg 70%
    17:00 +7°C° 0 mm 6 mps 743 mmHg 69%
    18:00 +5°C° 0 mm 6 mps 744 mmHg 69%
    19:00 +4°C° 0 mm 6 mps 744 mmHg 68%
    20:00 +3°C° 0 mm 6 mps 745 mmHg 68%
    21:00 +3°C° 0 mm 6 mps 745 mmHg 67%
    22:00 +2°C° 0 mm 6 mps 745 mmHg 66%
    23:00 +2°C° 0 mm 6 mps 746 mmHg 66%

    25 November, Monday

    Time Temperature Precipitation Wind Pressure Humidity
    00:00 +2°C° 0 mm 6 mps 746 mmHg 66%
    01:00 +1°C° 0 mm 6 mps 746 mmHg 65%
    02:00 +1°C° 0 mm 6 mps 747 mmHg 66%
    03:00 +1°C° 0 mm 6 mps 747 mmHg 67%
    04:00 +1°C° 0 mm 5 mps 748 mmHg 68%
    05:00 +1°C° 0 mm 5 mps 748 mmHg 69%
    06:00 +1°C° 0 mm 5 mps 749 mmHg 70%
    07:00 +1°C° 0 mm 4 mps 749 mmHg 70%
    08:00 +2°C° 0 mm 5 mps 750 mmHg 66%
    09:00 +2°C° 0 mm 5 mps 751 mmHg 62%
    10:00 +3°C° 0 mm 5 mps 751 mmHg 58%
    11:00 +5°C° 0 mm 4 mps 751 mmHg 57%
    12:00 +6°C° 0 mm 4 mps 751 mmHg 55%
    13:00 +6°C° 0 mm 4 mps 752 mmHg 53%
    14:00 +7°C° 0 mm 3 mps 752 mmHg 55%
    15:00 +7°C° 0 mm 3 mps 752 mmHg 56%
    16:00 +7°C° 0 mm 2 mps 753 mmHg 57%
    17:00 +7°C° 0 mm 3 mps 754 mmHg 60%
    18:00 +7°C° 0 mm 3 mps 754 mmHg 62%
    19:00 +5°C° 0 mm 3 mps 755 mmHg 65%
    20:00 +5°C° 0 mm 3 mps 755 mmHg 65%
    21:00 +6°C° 0 mm 2 mps 756 mmHg 66%
    22:00 +5°C° 0 mm 2 mps 756 mmHg 67%
    23:00 +5°C° 0 mm 2 mps 756 mmHg 68%

    26 November, Tuesday

    Time Temperature Precipitation Wind Pressure Humidity
    00:00 +5°C° 0 mm 2 mps 756 mmHg 69%
    01:00 +5°C° 0 mm 2 mps 756 mmHg 70%
    02:00 +5°C° 0 mm 1 mps 757 mmHg 71%
    03:00 +5°C° 0 mm 1 mps 757 mmHg 73%
    04:00 +5°C° 0 mm 1 mps 757 mmHg 74%
    05:00 +5°C° 0 mm 1 mps 758 mmHg 74%
    06:00 +5°C° 0 mm 1 mps 758 mmHg 75%
    07:00 +5°C° 0 mm 1 mps 759 mmHg 76%
    08:00 +6°C° 0 mm 1 mps 759 mmHg 71%
    09:00 +7°C° 0 mm 1 mps 759 mmHg 67%
    10:00 +8°C° 0 mm 1 mps 760 mmHg 62%
    11:00 +8°C° 0 mm 2 mps 759 mmHg 59%
    12:00 +9°C° 0 mm 2 mps 759 mmHg 56%
    13:00 +10°C° 0 mm 2 mps 759 mmHg 53%
    14:00 +10°C° 0 mm 2 mps 759 mmHg 56%
    15:00 +10°C° 0 mm 2 mps 759 mmHg 59%
    16:00 +10°C° 0 mm 2 mps 759 mmHg 62%
    17:00 +9°C° 0 mm 2 mps 760 mmHg 67%
    18:00 +9°C° 0 mm 2 mps 760 mmHg 72%
    19:00 +8°C° 0 mm 2 mps 761 mmHg 78%
    20:00 +8°C° 0 mm 2 mps 761 mmHg 78%
    21:00 +8°C° 0 mm 2 mps 760 mmHg 79%
    22:00 +8°C° 0 mm 2 mps 760 mmHg 80%
    23:00 +8°C° 0 mm 2 mps 760 mmHg 83%
    Show more